Find Starlink 6315

NORAD ID: 57236 Int'l Des: 2023-094 Owner: SPXS Country: US Constellation: starlink operational
LEOCIRCULAR

实时位置

正在加载3D地球...

关于 Starlink 6315

正在加载描述...

即将过境

Passes for default location (London). Set your location on the main map for personalized predictions.

高度历史

Loading altitude history...

两行轨道根数

1 57236U 23094U 26121.61634981 .00028735 00000-0 10533-2 0 9990
2 57236 43.0035 81.0633 0001709 277.8109 82.2548 15.27465313155335
Epoch: May 1, 2026 • Age: 16 hours

当前状态

高度 482.9 km
速度 7.63 km/s
星下点 19.45°N, 140.07°E
发射日期 Jul 7, 2023
运行时间 2.8 years
类型 internet

技术详情

分类 Payload
质量 305.00 kg
干质量 290.00 kg
总质量 305.00 kg
长度 0.20 m
直径 2.80 m
跨度 9.00 m
形状 Box + pan
制造商 SPXS
平台类型 Starlink
阶段状态 In Orbit
所有者/国家 SPXS/US

Most Searched